Location: Sungai Bunut
(2.6333°N, 113.7333°E)
Time: 12:31:34
(UTC+00:00)

USA 305 - Pass Details

Date: 16 October 2021
Orbit: 563 x 570 km, 53.9° (Epoch: 27 November)

Event Time Altitude Azimuth Distance (km) Brightness Sun altitude
Rises 21:28:03 0° 221° (SW) 2,751 6.1 -10.9°
Reaches altitude 10° 21:30:20 10° 226° (SW) 1,855 5.2 -10.3°
Maximum altitude 21:34:27 53° 303° (WNW) 694 3.0 -9.3°
Drops below altitude 10° 21:38:34 10° 21° (NNE) 1,854 5.7 -8.3°
Sets 21:40:51 0° 25° (NNE) 2,750 6.6 -7.7°
